This is the latest recevied weather packets stored in our database for station/object KB0RPJ. If no packets are shown the sender has not sent any weather packets the latest 10 day(s).
| Time | Temp. | Humidity | Pressure | Rain* | Wind** | Luminosity | Snow |
|---|---|---|---|---|---|---|---|
| 1778101205 | 15.56° C | 34% | 1017.3 hPa | 0 mm | - | 604 W/m² | - |
| 1778100905 | 15° C | 34% | 1017.5 hPa | 0 mm | - | 901 W/m² | - |
| 1778100606 | 15° C | 33% | 1017.4 hPa | 0 mm | - | 909 W/m² | - |
| 1778100305 | 15° C | 37% | 1017.5 hPa | 0 mm | - | 383 W/m² | - |
| 1778100005 | 15° C | 32% | 1017.5 hPa | 0 mm | - | 821 W/m² | - |
| 1778099705 | 15° C | 36% | 1017.5 hPa | 0 mm | - | 556 W/m² | - |
| 1778099406 | 15° C | 33% | 1017.6 hPa | 0 mm | - | 626 W/m² | - |
| 1778099104 | 15° C | 35% | 1017.7 hPa | 0 mm | - | 888 W/m² | - |
| 1778098805 | 14.44° C | 33% | 1017.5 hPa | 0 mm | - | 864 W/m² | - |
| 1778098505 | 14.44° C | 35% | 1017.6 hPa | 0 mm | - | 718 W/m² | - |
| 1778098205 | 14.44° C | 34% | 1017.6 hPa | 0 mm | - | 918 W/m² | - |
| 1778097905 | 15° C | 36% | 1017.7 hPa | 0 mm | - | 816 W/m² | - |
| 1778097605 | 14.44° C | 39% | 1017.7 hPa | 0 mm | - | 922 W/m² | - |
| 1778097305 | 14.44° C | 34% | 1017.8 hPa | 0 mm | - | 928 W/m² | - |
| 1778097005 | 14.44° C | 35% | 1017.9 hPa | 0 mm | - | 708 W/m² | - |
| 1778096706 | 13.89° C | 35% | 1017.9 hPa | 0 mm | - | 964 W/m² | - |
| 1778096405 | 13.89° C | 36% | 1017.9 hPa | 0 mm | - | 861 W/m² | - |
| 1778096106 | 13.89° C | 38% | 1017.9 hPa | 0 mm | - | 899 W/m² | - |
| 1778095818 | 13.89° C | 39% | 1018 hPa | 0 mm | - | 851 W/m² | - |
| 1778095505 | 13.33° C | 36% | 1018.1 hPa | 0 mm | - | 718 W/m² | - |
| 1778095206 | 13.89° C | 35% | 1018.2 hPa | 0 mm | - | 579 W/m² | - |
| 1778094906 | 13.89° C | 39% | 1018.2 hPa | 0 mm | - | 441 W/m² | - |
| 1778094605 | 13.33° C | 40% | 1018.3 hPa | 0 mm | - | 1020 W/m² | - |
| 1778094309 | 13.33° C | 41% | 1018.3 hPa | 0 mm | - | 994 W/m² | - |
| 1778094005 | 13.33° C | 38% | 1018.3 hPa | 0 mm | - | 852 W/m² | - |
* Rain latest hour (hover to see other rain measurements)
** Current wind speed in m/s (hover to see current wind gust speed)